Current Version              Previous Version:    01  02  03  04  05  06  07  08  09  10  11  12  13  14  15  16  17  18  19  20  21  22  23  24  25  26  27  28  29  30  
   31  32  33  34  35  36  37  38  39  40  41  42  43  44  45  46  47  48  49  50  51  52  53  54  55  56  57  58  59  60  

[Printable]
174
ASUS44 KEWX 200210
RWRTX
SOUTH TEXAS REGIONAL WEATHER ROUNDUP
NATIONAL WEATHER SERVICE AUSTIN/SAN ANTONIO TX
900 PM CDT TUE AUG 19 2014

NOTE: "FAIR" INDICATED FEW OR NO CLOUDS BELOW 12,000 FEET WITH NO
SIGNIFICANT WEATHER AND/OR OBSTRUCTIONS TO VISIBILITY.

* - THESE STATIONS ARE NOT NWS OR FAA STATIONS...AND ARE NOT SUBJECT
    TO NWS AND FAA QUALITY CONTROL.

TXZ171-172-183>190-200300-
TEXAS HILL COUNTRY AND EDWARDS PLATEAU

CITY           SKY/WX    TMP DP  RH WIND       PRES   REMARKS
JUNCTION       CLEAR     79  71  76 E7        29.88R
*LLANO         PTCLDY    84  64  51 CALM      29.89R
BURNET         MOCLDY    86  63  45 E3        29.89R
*HORSESHOE BAY PTCLDY    86  62  43 CALM      29.86R
*KERRVILLE     MOCLDY    78  73  86 SE3       29.88S
*FREDERICKSBRG PTCLDY    80  68  67 CALM      29.89R
*ROCKSPRINGS   PTCLDY    79  70  73 CALM        N/A
*BOERNE STAGE  MOCLDY    86  66  51 SE15G22   29.89R
*CASTROVILLE   MOCLDY    91  67  45 SE17G24   29.85R HX  93
HONDO          MOCLDY    89  69  51 SE16      29.85R HX  93
*UVALDE        CLOUDY    88  67  48 SE6       29.81R HX  90
DEL RIO        PTCLDY    88  72  58 E8        29.79R HX  94
LAUGHLIN AFB   CLOUDY    85  75  72 NE6       29.81R HX  93
CARRIZO SPRGS  PTCLDY    95  61  31 SE14      29.77R HX  95
$$

TXZ173-191>194-202-209-217>225-228-200300-
CENTRAL AND SOUTH CENTRAL TEXAS

CITY           SKY/WX    TMP DP  RH WIND       PRES   REMARKS
GEORGETOWN     CLEAR     91  63  38 SE12      29.86R HX  92
AUSTIN/BERGSTM CLOUDY    90  64  42 SE18      29.85R HX  91
AUSTIN/MABRY   CLOUDY    91  63  39 SE14G24   29.86R HX  92
*AUSTIN/EXEC     N/A     90  64  43 SE10      29.87R HX  91
*LAGO VISTA    CLOUDY    90  62  40 SE8G21    29.89R HX  90
SAN MARCOS     CLOUDY    90  61  37 SE20      29.88R
NEW BRAUNFELS  MOCLDY    89  65  44 SE21G26   29.85R HX  91
RANDOLPH AFB   CLOUDY    87  67  51 SE18G24   29.87R HX  90
PT SAN ANTONIO MOCLDY    90  70  52 SE20G31   29.84R HX  95
SAN ANTONIO    MOCLDY    91  70  49 SE17G28   29.86R HX  96
STINSON FIELD  MOCLDY    90  69  50 SE18      29.84R HX  94
*PLEASANTON    MOCLDY    89  68  50 SE13G22   29.85R HX  92
*LA GRANGE     MOCLDY    88  72  58 SE9       29.88R HX  95
*GIDDINGS      MOCLDY    87  66  48 SE8G17    29.92R
*GONZALES      MOCLDY    87  70  57 SE10G16   29.88R HX  92
$$

TXZ163>164-176>182-195>201-210>213-226-227-235-200300-
SOUTHEAST TEXAS

CITY           SKY/WX    TMP DP  RH WIND       PRES   REMARKS
COLLEGE STN    MOCLDY    80  70  71 E10       29.90R
*BRYAN         MOCLDY    76  72  88 E6        29.90S
*CALDWELL      MOCLDY    81  72  74 E6        29.93R
*CROCKETT        N/A    N/A N/A N/A MISG        N/A
*BRENHAM       MOCLDY    82  73  73 SE8       29.91R
HUNTSVILLE     CLOUDY    76  72  87 E5        29.93R
CONROE         CLOUDY    74  72  93 VRB5      29.94R
HOUSTON BUSH   CLOUDY    78  74  87 E8        29.93R
HOUSTON HOBBY  CLOUDY    83  73  72 SE5       29.92R
*HOUSTON SW AP CLOUDY    82  73  75 MISG      29.93R
PEARLAND       CLOUDY    84  74  71 SE5       29.94R HX  91
HOUSTON HOOKS  CLOUDY    78  75  90 E5        29.93R
ELLINGTON FLD  MOCLDY    84  77  79 SE6       29.93R HX  94
SUGAR LAND     CLEAR     84  73  70 SE10      29.92R HX  91
*HOUSTON EXEC  CLOUDY    86  73  66 SE15      29.93R HX  93
*CLEVELAND MUN CLOUDY    74  73  96 CALM      29.95R
*WHARTON       CLEAR     82  73  75 SE7       29.93R
$$

TXZ214>216-236>238-200300-
THE UPPER TEXAS COAST

CITY           SKY/WX    TMP DP  RH WIND       PRES   REMARKS
*ORANGE        CLOUDY    75  75 100 CALM      29.96S
PORT ARTHUR    CLOUDY    79  74  84 NE6       29.94R
GALVESTON      MOCLDY    85  76  74 SE12      29.94R HX  94
ANGLETON       MOCLDY    82  75  79 SE6       29.92R
*BAY CITY      CLEAR     83  77  80 SE5       29.92R HX  92
PALACIOS       MOCLDY    85  76  74 SE13      29.91R HX  94
$$

TXZ229>234-239>247-200300-
TEXAS COASTAL BEND AND RIO GRANDE PLAINS

CITY           SKY/WX    TMP DP  RH WIND       PRES   REMARKS
VICTORIA       CLEAR     85  74  69 SE15      29.90R HX  92
*BEEVILLE      CLEAR     83  73  70 SE14      29.87R
ROCKPORT       CLEAR     85  76  74 SE13      29.88R HX  94
*PORT ARANSAS  CLEAR     83  78  84 SE7       29.88R HX  92
*PORT LAVACA   CLEAR     83  76  78 SE8       29.90R HX  91
*INGLESIDE     CLEAR     85  76  73 SE13      29.87R HX  94
CORPUS CHRISTI PTCLDY    83  76  79 SE15      29.87R HX  91
CORPUS NAS     PTCLDY    84  79  85 SE16      29.87R HX  96
*ROBSTOWN      NOT AVBL
ALICE          CLEAR     84  74  71 SE17      29.85R HX  91
KINGSVILLE NAS PTCLDY    84  78  82 SE16G24   29.85R HX  95
COTULLA        CLEAR     95  58  28 SE13G23   29.80R HX  94
*FAITH RANCH   PTCLDY    97  57  26 SE12G21   29.77R HX  95
LAREDO         CLEAR     94  66  39 SE21G30   29.82R HX  97
$$

TXZ248>255-200300-
DEEP SOUTH TEXAS

CITY           SKY/WX    TMP DP  RH WIND       PRES   REMARKS
BROWNSVILLE    CLEAR     84  76  76 SE10      29.86R HX  93
PORT ISABEL    CLEAR     85  75  72 SE12      29.85R HX  93
*SOUTH PADRE     N/A     81  77  89 SE8       29.86R
HARLINGEN      CLEAR     85  72  65 SE12      29.84R HX  91
*HEBBRONVILLE  CLEAR     90  57  33 SE12G22   29.85R
MCALLEN        CLEAR     86  71  60 SE17      29.84R HX  91
*WESLACO       CLEAR     86  69  56 SE13G21   29.84R HX  90
FALFURRIAS     CLEAR     93  68  44 SE12G17   29.83R HX  97
EDINBURG       CLEAR     88  65  47 SE12      29.84R HX  90
*ZAPATA        CLOUDY    91  65  41 SE14G20   29.80R HX  92
$$

TXZ213>215-236>238-242>244-246-247-251-254-255-200300-
CMAN STATIONS

STATION/POSITION TIME  TEMP    WIND        PRES    WAVE
                       AIR SEA DIR/SP/G            HT/PER
                 (UTC) (F)     (DEG/KT/KT) (MB)    (FT/S)
SABINE PASS      0200   80 87   40/  6/  8 1014.0
SEA RIM ST PARK  0200   78      50/  6/  6 1014.3
NORTH JETTY/GLS  0200   85 87  160/ 11/ 13   N/A
EAGLE POINT      0200   86 87  150/ 13/ 15 1013.4
MORGANS POINT    0200   85     130/  8/ 11 1013.2
MISSION/ARANSAS  0100   84     140/ 16     1012.0
PORT O`CONNOR    0200          130/ 13/ 16   N/A
PORT ARANSAS     0200   83 85  120/  9/ 10 1012.7
MALAQUITE BEACH  0200   82 83  120/ 12/ 14 1010.8
BAFFIN BAY       0200   83 85  130/ 13/ 16 1011.1
PORT ISABEL      0200   83 82  120/  7/  9 1011.5
$$

GMZ080-GMZ150>470-200300-
OFFSHORE BUOY REPORTS

STATION/POSITION TIME  TEMP    WIND        PRES    WAVE
                       AIR SEA DIR/SP/G            HT/PER
                 (UTC) (F)     (DEG/KT/KT) (MB)    (FT/S)
90 E PT ARANSAS  0200   85 85  120/ 12/ 16 1013.2    3/ 6
35 NE PT MANSFLD 0200   85 86  140/ 16/ 17 1011.0    4/ 7
200 E PT ISABEL  0200   86 87  130/ 14/ 16 1012.7    2/ 5
$$